This is the latest recevied weather packets stored in our database for station/object IU3NMQ-10. If no packets are shown the sender has not sent any weather packets the latest 10 day(s).
| Time | Temp. | Humidity | Pressure | Rain* | Wind** | Luminosity | Snow |
|---|---|---|---|---|---|---|---|
| 1787621773 | 24.44° C | 65% | 1008 hPa | - | - | - | - |
| 1787620868 | 24.44° C | 65% | 1008.4 hPa | - | - | - | - |
| 1787619968 | 24.44° C | 65% | 1008.5 hPa | - | - | - | - |
| 1787619068 | 25° C | 66% | 1008.9 hPa | - | - | - | - |
| 1787618167 | 25° C | 64% | 1009.4 hPa | - | - | - | - |
| 1787617267 | 24.44° C | 66% | 1009.7 hPa | - | - | - | - |
| 1787616367 | 25° C | 65% | 1009.5 hPa | - | - | - | - |
| 1787615467 | 25° C | 64% | 1009.6 hPa | - | - | - | - |
| 1787614567 | 25° C | 64% | 1009.8 hPa | - | - | - | - |
| 1787613667 | 25° C | 64% | 1010.1 hPa | - | - | - | - |
| 1787612767 | 25° C | 64% | 1010.3 hPa | - | - | - | - |
| 1787611867 | 25.56° C | 65% | 1010.4 hPa | - | - | - | - |
| 1787610966 | 25.56° C | 64% | 1010.3 hPa | - | - | - | - |
| 1787610061 | 25° C | 67% | 1010.3 hPa | - | - | - | - |
| 1787609221 | 25.56° C | 66% | 1010.3 hPa | - | - | - | - |
| 1787609161 | 25.56° C | 66% | 1010.3 hPa | - | - | - | - |
| 1787608261 | 26.11° C | 65% | 1010.7 hPa | - | - | - | - |
| 1787607361 | 26.11° C | 64% | 1010.8 hPa | - | - | - | - |
| 1787606464 | 26.11° C | 63% | 1011.2 hPa | - | - | - | - |
| 1787605561 | 26.67° C | 62% | 1011.3 hPa | - | - | - | - |
| 1787604661 | 26.67° C | 61% | 1011.2 hPa | - | - | - | - |
| 1787603761 | 26.67° C | 60% | 1011 hPa | - | - | - | - |
| 1787602860 | 27.22° C | 59% | 1011.2 hPa | - | - | - | - |
| 1787601960 | 27.22° C | 59% | 1010.9 hPa | - | - | - | - |
| 1787601060 | 27.78° C | 58% | 1010.8 hPa | - | - | - | - |
* Rain since midnight (hover to see other rain measurements)
** Current wind speed in m/s (hover to see current wind gust speed)